Regional Weather Roundup
Issued by NWS

Home | Current Version | Previous Version | Text Only | Print | Product List | Glossary On
Versions: 1 2 3 4 5 6 7 8 9 10 11 12 13 14 15 16 17 18 19 20 21 22 23 24 25 26 27 28 29 30 31 32 33 34 35 36 37 38 39 40 41 42 43 44 45 46 47 48 49 50
366
ASUS45 KTFX 241110
RWRMT
MONTANA REGIONAL WEATHER ROUNDUP
NATIONAL WEATHER SERVICE GREAT FALLS MT
400 AM MST FRI NOV 24 2017

NOTE: "FAIR" INDICATES FEW OR NO CLOUDS BELOW 12000 FEET WITH NO
SIGNIFICANT WEATHER AND/OR OBSTRUCTIONS TO VISIBILITY.

MTZ001>007-043-241200-
WEST OF THE DIVIDE

CITY           SKY/WX    TMP DP  RH WIND       PRES   REMARKS
KALISPELL      FAIR      38  29  70 SW9       29.87R WCI  31
MISSOULA       FAIR      38  29  70 W7        29.93R
BUTTE          FAIR      38  27  64 NW9       29.87S WCI  31
MULLAN PASS    CLOUDY    28  24  85 VRB7G21   29.88S WCI  21
ANACONDA         N/A     39  28  65 S3G17     29.88R
DEER LODGE       N/A     37  27  65 NW8       29.87F WCI  31
EUREKA           N/A     34  27  75 MISG      29.86R
HAMILTON         N/A     39  25  56 S3        29.92R
LIBBY            N/A     36  30  80 CALM      29.87R
PLAINS           N/A     44  29  56 NW2       29.94R
RONAN            N/A     41  25  53 SW2       29.97R
THOMPSON FALLS   N/A     37  30  76 CALM      29.99R
$$

MTZ008-052>055-241200-
SOUTHWEST MONTANA

CITY           SKY/WX    TMP DP  RH WIND       PRES   REMARKS
BOZEMAN        FAIR      41  34  76 N9        29.84R
DILLON         FAIR      40  32  73 SW16      29.87R
W YELLOWSTONE  CLOUDY    39  36  87 W8G17     29.87F
ENNIS          CLOUDY    43  36  75 CALM      29.92R
TWIN BRIDGES     N/A     44  29  56 CALM      29.88R
$$

MTZ009-010-012-014-046-048-049-054-241200-
EAST SLOPES AND CENTRAL MONTANA

CITY           SKY/WX    TMP DP  RH WIND       PRES   REMARKS
CUT BANK       FAIR      34  26  72 W15       29.69R WCI  24
GREAT FALLS    FAIR      42  18  37 W21G33    29.71R
MALMSTROM AFB  FAIR      44  20  37 W15G25    29.73R
HELENA         FAIR      43  24  47 NW20G26   29.84R
BOWMANS CRNR   FAIR      38  20  48 W28G41    29.71F WCI  26
CHOTEAU          N/A     41  19  42 W17G29    29.73S
FAIRFIELD      FAIR      40  21  46 NW5       29.73R
POWER          FAIR      35  24  63 W12       29.71R WCI  27
RAYNESFORD     FAIR      44  21  41 W23G38    29.72R
ULM            FAIR      42  23  47 W16       29.74R
$$

MTZ011-013-016-021-045-047-050-051-241200-
NORTH CENTRAL MONTANA

CITY           SKY/WX    TMP DP  RH WIND       PRES   REMARKS
HAVRE          FAIR      38  34  85 W13       29.65R WCI  30
LEWISTOWN      FAIR      44  25  47 NW22G35   29.68R
N BAR RANCH    FAIR      45  23  42 NW32G39   29.67R
CHINOOK          N/A     39  37  93 W17G29    29.63R WCI  30
DENTON         FAIR      44  24  44 W22G32    29.65R
GEYSER         FAIR      41  25  53 W20G30    29.70R
GRASS RANGE    FAIR      48  28  46 W22G39    29.63R
STANFORD       FAIR      42  19  39 NW21G31   29.69R
WINIFRED       FAIR      42  30  61 W16G22    29.67R
$$

MTZ017>020-022>027-061-062-241200-
NORTHEAST MONTANA

CITY           SKY/WX    TMP DP  RH WIND       PRES   REMARKS
GLASGOW        FAIR      40  36  86 NW13      29.53R
GLENDIVE       FAIR      48  42  80 W22       29.49F
JORDAN           N/A     41  32  70 W10       29.59R
SIDNEY         FAIR      50  44  80 W24       29.42R
WOLF POINT     FAIR      43  38  82 NW15      29.51R
MALTA          PTCLDY    37  36  93 W8        29.58R WCI  31
POPLAR           N/A     39  36  87 NW9       29.50R
SCOBEY           N/A     38  31  76 NW13      29.50R WCI  30
$$

MTZ028>42-056>058-241200-
SOUTHCENTRAL AND SOUTHEAST MONTANA

CITY           SKY/WX    TMP DP  RH WIND       PRES   REMARKS
BAKER          LGT RAIN  47  43  86 W13       29.55R
BILLINGS       MOCLDY    49  36  61 NW22G29   29.69R
LIVINGSTON     CLOUDY    46  32  58 W25G33    29.76R
MILES CITY     FAIR      48  44  86 NW12      29.58R
BIG TIMBER     CLOUDY    45  36  70 W21G30    29.79R
FORSYTH          N/A     52  43  71 W7        29.59R
HARLOWTON      FAIR      42  28  58 W39G49    29.70R
LAUREL           N/A     48  37  66 NW13G20   29.71R
$$

REGIONAL REPORTS...DAKOTAS

CITY           SKY/WX    TMP DP  RH WIND       PRES   REMARKS
WILLISTON      CLOUDY    41  37  86 NW8       29.43R
MINOT          CLOUDY    43  35  73 W9        29.35R
DICKINSON      LGT RAIN  49  44  83 W18       29.46R
BEACH          LGT RAIN  46  46 100 W15G25    29.51F
CROSBY         CLOUDY    41  37  87 W14G21    29.42R
TIOGA          LGT RAIN  37  37 100 W6        29.40S
WATFORD CITY   MOCLDY    43  41  93 N7        29.40R
BISMARCK       CLOUDY    51  37  58 W8        29.41R
GRAND FORKS    MOCLDY    39  35  86 SE7       29.21F
FARGO          FAIR      45  37  73 SW9       29.28S
RAPID CITY     FAIR      51  30  44 SW8       29.54F
$$

REGIONAL REPORTS...WYOMING/IDAHO/WASHINGTON

CITY           SKY/WX    TMP DP  RH WIND       PRES   REMARKS
GILLETTE       FAIR      57  31  37 SW25G36   29.59S
SHERIDAN       FAIR      49  40  71 N21G31    29.68R
BUFFALO WY     MOCLDY    52  31  44 N37G48    29.70R
CODY           FAIR      52  33  48 W7        29.69F
YELLOWSTONE LA   N/A     36  34  92 W12G20    29.92R WCI  28
IDAHO FALLS    FAIR      45  38  76 S23G29    29.89F
SALMON         CLOUDY    44  39  82 SE5       29.92R
BOISE          RAIN      51  48  89 SW3       29.95R FOG
SPOKANE        FAIR      37  32  82 S12       29.94R WCI  29
$$

REGIONAL REPORTS...ALBERTA

CITY           SKY/WX    TMP DP  RH WIND       PRES   REMARKS
EDMONTON       CLOUDY    34  25  69 W8        29.48  WCI  27
CALGARY        PTCLDY    39  19  45 SW7       29.59R
LETHBRIDGE     CLEAR     39  27  60 W24G31    29.64R WCI  28
MEDICINE HAT   CLEAR     36  32  87 W8        29.61R WCI  29
$$

REGIONAL REPORTS...SASKATCHEWAN

CITY           SKY/WX    TMP DP  RH WIND       PRES   REMARKS
SWIFT CURRENT    N/A     34  32  93 W14       29.49R WCI  24
REGINA         MOCLDY    36  34  93 W15G23    29.41R WCI  26
SASKATOON      CLEAR     30  27  86 SW15      29.40R WCI  19
$$




USA.gov is the U.S. government's official web portal to all federal, state and local government web resources and services.